Time,TemperatureF,DewpointF,PressureIn,WindDirection,WindDirectionDegrees,WindSpeedMPH,WindSpeedGustMPH,Humidity,HourlyPrecipIn,Conditions,Clouds,dailyrainin,SolarRadiationWatts/m^2,SoftwareType,DateUTC
2013-04-10 00:02:00,56.0,37.0,-100.00,East,79,4.0,8.0,48,0.00,,,-99.99,0.000000,,2013-04-10 07:02:00,
2013-04-10 00:12:00,56.0,37.0,-100.00,East,79,4.0,8.0,48,0.00,,,-99.99,0.000000,,2013-04-10 07:12:00,
2013-04-10 00:43:00,51.0,39.0,-100.00,NNE,31,3.0,7.0,64,0.00,,,0.00,0.000000,,2013-04-10 07:43:00,
2013-04-10 00:52:00,51.0,39.0,-100.00,NNE,31,3.0,7.0,64,0.00,,,0.00,0.000000,,2013-04-10 07:52:00,
2013-04-10 01:02:00,51.0,39.0,-100.00,NNE,31,3.0,7.0,64,0.00,,,0.00,0.000000,,2013-04-10 08:02:00,
2013-04-10 01:11:00,51.0,39.0,-100.00,NNE,31,3.0,7.0,64,0.00,,,0.00,0.000000,,2013-04-10 08:11:00,
2013-04-10 01:42:00,53.0,38.0,-100.00,ENE,76,1.0,5.0,57,0.00,,,0.00,0.000000,,2013-04-10 08:42:00,
2013-04-10 01:52:00,53.0,38.0,-100.00,ENE,76,1.0,5.0,57,0.00,,,0.00,0.000000,,2013-04-10 08:52:00,
2013-04-10 02:02:00,53.0,38.0,-100.00,ENE,76,1.0,5.0,57,0.00,,,0.00,0.000000,,2013-04-10 09:02:00,
2013-04-10 02:12:00,53.0,38.0,-100.00,ENE,76,1.0,5.0,57,0.00,,,0.00,0.000000,,2013-04-10 09:12:00,
2013-04-10 02:43:00,49.0,38.0,-100.00,SE,124,1.0,4.0,65,0.00,,,0.00,0.000000,,2013-04-10 09:43:00,
2013-04-10 02:53:00,49.0,38.0,-100.00,SE,124,1.0,4.0,65,0.00,,,0.00,0.000000,,2013-04-10 09:53:00,
2013-04-10 03:02:00,49.0,38.0,-100.00,SE,124,1.0,4.0,65,0.00,,,0.00,0.000000,,2013-04-10 10:02:00,
2013-04-10 03:12:00,49.0,38.0,-100.00,SE,124,1.0,4.0,65,0.00,,,0.00,0.000000,,2013-04-10 10:12:00,
2013-04-10 03:33:00,46.0,38.0,-100.00,ESE,108,3.0,5.0,74,0.00,,,0.00,0.000000,,2013-04-10 10:33:00,
2013-04-10 06:32:00,47.0,39.0,-100.00,NNW,346,3.0,8.0,73,-99.99,,,0.00,0.000000,,2013-04-10 13:32:00,
2013-04-10 06:43:00,47.0,39.0,-100.00,NNW,346,3.0,8.0,73,-99.99,,,0.00,0.000000,,2013-04-10 13:43:00,
2013-04-10 06:53:00,47.0,39.0,-100.00,NNW,346,3.0,8.0,73,-99.99,,,0.00,0.000000,,2013-04-10 13:53:00,
2013-04-10 07:02:00,47.0,39.0,-100.00,NNW,346,3.0,8.0,73,-99.99,,,0.00,0.000000,,2013-04-10 14:02:00,
2013-04-10 07:12:00,47.0,39.0,-100.00,NNW,346,3.0,8.0,73,-99.99,,,0.00,0.000000,,2013-04-10 14:12:00,
2013-04-10 07:33:00,47.0,40.0,-100.00,NNE,32,2.0,3.0,76,0.00,,,0.00,16.000000,,2013-04-10 14:33:00,
2013-04-10 07:42:00,47.0,40.0,-100.00,NNE,32,2.0,3.0,76,0.00,,,0.00,16.000000,,2013-04-10 14:42:00,
2013-04-10 07:52:00,47.0,40.0,-100.00,NNE,32,2.0,3.0,76,0.00,,,0.00,16.000000,,2013-04-10 14:52:00,
2013-04-10 08:02:00,47.0,40.0,-100.00,NNE,32,2.0,3.0,76,0.00,,,0.00,16.000000,,2013-04-10 15:02:00,
2013-04-10 08:12:00,47.0,40.0,-100.00,NNE,32,2.0,3.0,76,0.00,,,0.00,16.000000,,2013-04-10 15:12:00,
2013-04-10 09:33:00,64.0,44.0,-100.00,SSW,204,3.0,6.0,49,-99.99,,,0.00,369.000000,,2013-04-10 16:33:00,
2013-04-10 09:43:00,64.0,44.0,-100.00,SSW,204,3.0,6.0,49,-99.99,,,0.00,369.000000,,2013-04-10 16:43:00,
2013-04-10 09:53:00,64.0,44.0,-100.00,SSW,204,3.0,6.0,49,-99.99,,,0.00,369.000000,,2013-04-10 16:53:00,
2013-04-10 10:02:00,64.0,44.0,-100.00,SSW,204,3.0,6.0,49,-99.99,,,0.00,369.000000,,2013-04-10 17:02:00,
2013-04-10 10:12:00,64.0,44.0,-100.00,SSW,204,3.0,6.0,49,-99.99,,,0.00,369.000000,,2013-04-10 17:12:00,
2013-04-10 10:34:00,68.0,42.0,-100.00,SW,235,6.0,10.0,39,0.00,,,0.00,559.000000,,2013-04-10 17:34:00,
2013-04-10 10:43:00,68.0,42.0,-100.00,SW,235,6.0,10.0,39,0.00,,,0.00,559.000000,,2013-04-10 17:43:00,
2013-04-10 10:52:00,68.0,42.0,-100.00,SW,235,6.0,10.0,39,0.00,,,0.00,559.000000,,2013-04-10 17:52:00,
2013-04-10 11:02:00,68.0,42.0,-100.00,SW,235,6.0,10.0,39,0.00,,,0.00,559.000000,,2013-04-10 18:02:00,
2013-04-10 11:12:00,68.0,42.0,-100.00,SW,235,6.0,10.0,39,0.00,,,0.00,559.000000,,2013-04-10 18:12:00,
2013-04-10 11:43:00,71.0,45.0,-100.00,WSW,242,4.0,8.0,39,0.00,,,0.00,717.000000,,2013-04-10 18:43:00,
2013-04-10 11:52:00,71.0,45.0,-100.00,WSW,242,4.0,8.0,39,0.00,,,0.00,717.000000,,2013-04-10 18:52:00,
2013-04-10 12:02:00,71.0,45.0,-100.00,WSW,242,4.0,8.0,39,0.00,,,0.00,717.000000,,2013-04-10 19:02:00,
2013-04-10 12:12:00,71.0,45.0,-100.00,WSW,242,4.0,8.0,39,0.00,,,0.00,717.000000,,2013-04-10 19:12:00,
2013-04-10 12:42:00,74.0,47.0,-100.00,West,267,4.0,12.0,38,0.00,,,0.00,830.000000,,2013-04-10 19:42:00,
2013-04-10 12:53:00,74.0,47.0,-100.00,West,267,4.0,12.0,38,0.00,,,0.00,830.000000,,2013-04-10 19:53:00,
2013-04-10 13:02:00,74.0,47.0,-100.00,West,267,4.0,12.0,38,0.00,,,0.00,830.000000,,2013-04-10 20:02:00,
2013-04-10 13:12:00,74.0,47.0,-100.00,West,267,4.0,12.0,38,0.00,,,0.00,830.000000,,2013-04-10 20:12:00,
2013-04-10 13:33:00,78.0,49.0,-100.00,West,265,4.0,10.0,36,0.00,,,0.00,887.000000,,2013-04-10 20:33:00,
2013-04-10 13:42:00,78.0,49.0,-100.00,West,265,4.0,10.0,36,0.00,,,0.00,887.000000,,2013-04-10 20:42:00,
2013-04-10 13:52:00,78.0,49.0,-100.00,West,265,4.0,10.0,36,0.00,,,0.00,887.000000,,2013-04-10 20:52:00,
2013-04-10 14:02:00,78.0,49.0,-100.00,West,265,4.0,10.0,36,0.00,,,0.00,887.000000,,2013-04-10 21:02:00,
2013-04-10 14:12:00,78.0,49.0,-100.00,West,265,4.0,10.0,36,0.00,,,0.00,887.000000,,2013-04-10 21:12:00,
2013-04-10 14:43:00,82.0,52.0,-100.00,NNW,344,4.0,8.0,35,0.00,,,0.00,886.000000,,2013-04-10 21:43:00,
2013-04-10 14:53:00,82.0,52.0,-100.00,NNW,344,4.0,8.0,35,0.00,,,0.00,886.000000,,2013-04-10 21:53:00,
2013-04-10 15:03:00,82.0,52.0,-100.00,NNW,344,4.0,8.0,35,0.00,,,0.00,886.000000,,2013-04-10 22:03:00,
2013-04-10 15:12:00,82.0,52.0,-100.00,NNW,344,4.0,8.0,35,0.00,,,0.00,886.000000,,2013-04-10 22:12:00,
2013-04-10 15:34:00,84.0,49.0,-100.00,NW,326,4.0,11.0,30,0.00,,,0.00,827.000000,,2013-04-10 22:34:00,
2013-04-10 15:43:00,84.0,49.0,-100.00,NW,326,4.0,11.0,30,0.00,,,0.00,827.000000,,2013-04-10 22:43:00,
2013-04-10 15:53:00,84.0,49.0,-100.00,NW,326,4.0,11.0,30,0.00,,,0.00,827.000000,,2013-04-10 22:53:00,
2013-04-10 16:02:00,84.0,49.0,-100.00,NW,326,4.0,11.0,30,0.00,,,0.00,827.000000,,2013-04-10 23:02:00,
2013-04-10 16:12:00,84.0,49.0,-100.00,NW,326,4.0,11.0,30,0.00,,,0.00,827.000000,,2013-04-10 23:12:00,
2013-04-10 16:33:00,86.0,48.0,-100.00,NNW,333,5.0,11.0,27,0.00,,,0.00,712.000000,,2013-04-10 23:33:00,
2013-04-10 16:43:00,86.0,48.0,-100.00,NNW,333,5.0,11.0,27,0.00,,,0.00,712.000000,,2013-04-10 23:43:00,
2013-04-10 16:52:00,86.0,48.0,-100.00,NNW,333,5.0,11.0,27,0.00,,,0.00,712.000000,,2013-04-10 23:52:00,
2013-04-10 17:02:00,86.0,48.0,-100.00,NNW,333,5.0,11.0,27,0.00,,,0.00,712.000000,,2013-04-11 00:02:00,
2013-04-10 17:11:00,86.0,48.0,-100.00,NNW,333,5.0,11.0,27,0.00,,,0.00,712.000000,,2013-04-11 00:11:00,
2013-04-10 17:42:00,85.0,50.0,-100.00,NNE,12,3.0,12.0,30,0.00,,,0.00,489.000000,,2013-04-11 00:42:00,
2013-04-10 17:53:00,85.0,50.0,-100.00,NNE,12,3.0,12.0,30,0.00,,,0.00,489.000000,,2013-04-11 00:53:00,
2013-04-10 18:02:00,85.0,50.0,-100.00,NNE,12,3.0,12.0,30,0.00,,,0.00,489.000000,,2013-04-11 01:02:00,
2013-04-10 18:12:00,85.0,50.0,-100.00,NNE,12,3.0,12.0,30,0.00,,,0.00,489.000000,,2013-04-11 01:12:00,
2013-04-10 18:42:00,85.0,51.0,-100.00,NE,55,3.0,6.0,31,0.00,,,0.00,342.000000,,2013-04-11 01:42:00,
2013-04-10 18:52:00,85.0,51.0,-100.00,NE,55,3.0,6.0,31,0.00,,,0.00,342.000000,,2013-04-11 01:52:00,
2013-04-10 19:02:00,85.0,51.0,-100.00,NE,55,3.0,6.0,31,0.00,,,0.00,342.000000,,2013-04-11 02:02:00,
2013-04-10 19:12:00,85.0,51.0,-100.00,NE,55,3.0,6.0,31,0.00,,,0.00,342.000000,,2013-04-11 02:12:00,
2013-04-10 19:52:00,78.0,54.0,-100.00,ESE,105,2.0,4.0,43,0.00,,,0.00,110.000000,,2013-04-11 02:52:00,
2013-04-10 20:02:00,78.0,54.0,-100.00,ESE,105,2.0,4.0,43,0.00,,,0.00,110.000000,,2013-04-11 03:02:00,
2013-04-10 20:12:00,78.0,54.0,-100.00,ESE,105,2.0,4.0,43,0.00,,,0.00,110.000000,,2013-04-11 03:12:00,
2013-04-10 20:43:00,66.0,55.0,-100.00,East,85,3.0,5.0,68,0.00,,,0.00,5.000000,,2013-04-11 03:43:00,
2013-04-10 21:43:00,63.0,54.0,-100.00,ESE,111,2.0,4.0,72,-99.99,,,0.00,0.000000,,2013-04-11 04:43:00,
2013-04-10 21:53:00,63.0,54.0,-100.00,ESE,111,2.0,4.0,72,-99.99,,,0.00,0.000000,,2013-04-11 04:53:00,
2013-04-10 22:42:00,68.0,53.0,-100.00,SSE,161,2.0,9.0,59,-99.99,,,0.00,0.000000,,2013-04-11 05:42:00,
2013-04-10 22:52:00,68.0,53.0,-100.00,SSE,161,2.0,9.0,59,-99.99,,,0.00,0.000000,,2013-04-11 05:52:00,
2013-04-10 23:02:00,68.0,53.0,-100.00,SSE,161,2.0,9.0,59,-99.99,,,0.00,0.000000,,2013-04-11 06:02:00,
2013-04-10 23:12:00,68.0,53.0,-100.00,SSE,161,2.0,9.0,59,-99.99,,,0.00,0.000000,,2013-04-11 06:12:00,
2013-04-10 23:42:00,62.0,55.0,-100.00,NNE,14,1.0,8.0,77,0.00,,,0.00,0.000000,,2013-04-11 06:42:00,
2013-04-10 23:52:00,62.0,55.0,-100.00,NNE,14,1.0,8.0,77,0.00,,,0.00,0.000000,,2013-04-11 06:52:00,